Regional Weather Roundup
Issued by NWS

Home | Current Version | Previous Version | Text Only | Print | Product List | Glossary On
Versions: 1 2 3 4 5 6 7 8 9 10 11 12 13 14 15 16 17 18 19 20 21 22 23 24 25 26 27 28 29 30 31 32 33 34 35 36 37 38 39 40 41 42 43 44 45 46 47 48 49 50
000
ASUS44 KFWD 210415
RWRTX
NORTH TEXAS HOURLY WEATHER ROUNDUP
NATIONAL WEATHER SERVICE FORT WORTH TX
1100 PM CDT WED AUG 20 2014

NOTE: "FAIR" INDICATES FEW OR NO CLOUDS BELOW 12,000 FEET WITH NO
SIGNIFICANT WEATHER AND/OR OBSTRUCTIONS TO VISIBILITY.

TXZ118-119-210500-
DALLAS/FORT WORTH METROPLEX

CITY           SKY/WX    TMP DP  RH WIND       PRES   REMARKS
DFW AIRPORT    CLEAR     86  70  58 S15G25    29.94R HX  90
DALLAS LOVE    CLEAR     85  71  63 S16G26    29.95R HX  90
FTW MEACHAM    CLEAR     87  69  54 S17       29.93R HX  91
DAL-EXECUTIVE  CLEAR     85  70  60 SE9G20    29.96R
FTW-ALLIANCE   CLEAR     86  69  56 S17G25    29.93R HX  90
FTW-NAS-JRB    PTCLDY    90  65  43 S16G25    29.98R HX  92
FTW-SPINKS     CLEAR     85  69  58 SE10G17   29.97R
ARLINGTON      CLEAR     85  69  58 SE17      29.95R
GRAND PRAIRIE  CLEAR     85  69  57 SE12      29.97R
ADDISON        CLEAR     86  69  56 S15       29.97R
MESQUITE       CLEAR     82  68  61 SE10      29.97R
LANCASTER      CLEAR     82  70  66 SE8       29.97S
$$

TXZ091>094-102>105-117-120-121-131>134-210500-
NORTH CENTRAL TEXAS

CITY           SKY/WX    TMP DP  RH WIND       PRES   REMARKS
SHRMAN/DENISON CLEAR     85  69  57 S18G28    29.96R
GAINESVILLE    CLEAR     84  69  59 SE13      29.96R
BOWIE          CLEAR     86  66  49 SE9G18    29.94R
BRIDGEPORT     CLEAR     87  63  44 SE10      29.95R
DECATUR        CLEAR     86  67  53 SE13G20   29.95R
DENTON         CLEAR     87  70  56 SE20G25   29.94R HX  92
MCKINNEY       CLEAR     83  69  62 S14G23    29.96R
GREENVILLE     CLEAR     82  70  65 S14       29.98R
ROCKWALL       CLEAR     82  71  68 S8        29.96R
TERRELL        CLEAR     83  72  69 S13       29.97R
WAXAHACHIE     CLEAR     82  68  60 SE10G18   29.98S
CLEBURNE       CLEAR     84  72  65 SE14      29.97S
GRANBURY       CLEAR     88  67  49 SE13G21   29.95S HX  90
$$

TXZ083>090-098>101-113>116-127>130-139>142-154-155-210500-
WESTERN NORTH TEXAS

CITY           SKY/WX    TMP DP  RH WIND       PRES   REMARKS
WICHITA FALLS  CLEAR     87  62  43 S13       29.90R
WF-KICKAPOO    CLEAR     87  59  39 S10G17    29.92R
VERNON         CLEAR     90  53  28 S13       29.92R
ABILENE        CLEAR     84  60  44 S9        29.97R
ABILENE-DYESS  CLEAR     82  62  50 S8        29.96R
BRECKENRIDGE   CLEAR     88  56  33 S7        29.94R
GRAHAM         CLEAR     87  60  39 SE6       29.92R
MINERAL WELLS  CLEAR     85  66  53 SE10      29.93R
STEPHENVILLE   CLEAR     85  65  50 SE13G18   29.99R
COMANCHE       MOCLDY    83  61  46 SE6       29.97R
BROWNWOOD      CLOUDY    81  59  47 SE8       29.96R
COLEMAN        CLEAR     80  62  55 SW3       29.98R
BRADY          CLEAR     81  63  54 SE10      29.98R
$$

TXZ143>147-156>162-174-175-210500-
CENTRAL TEXAS

CITY           SKY/WX    TMP DP  RH WIND       PRES   REMARKS
WACO           CLEAR     84  71  65 SE17G28   29.96R
WACO-TSTC      CLEAR     84  72  65 S15       29.97R
WACO-MCGREGOR  CLEAR     84  68  58 S16G23    29.97S
HILLSBORO      CLEAR     83  69  62 SE12G20   29.97R
CORSICANA      PTCLDY    83  71  67 SE14G23   29.99R
MEXIA          PTCLDY    81  73  76 S12G17    29.98S
HEARNE           N/A     82  74  77 SE6       29.99S
CAMERON        CLEAR     84  73  69 S6        29.98R HX  90
TEMPLE         CLEAR     84  68  58 SE17      29.97R
KILLEEN        CLEAR     86  68  54 SE15G25   29.97R
KILLEEN-SKYLRK CLEAR     84  66  54 S18       29.97S
FORT HOOD      CLEAR     87  69  54 SE14G22   29.97R HX  91
GATESVILLE     CLEAR     84  70  61 S9        29.99R
HAMILTON       PTCLDY    85  67  55 SE14      29.98S
LAMPASAS       CLEAR     88  70  54 S16G22    29.97R HX  93
$$

TXZ095>097-106>112-122>126-135>138-148>153-164>167-210500-
EAST TEXAS

CITY           SKY/WX    TMP DP  RH WIND       PRES   REMARKS
PARIS          CLEAR     81  66  61 S10       29.99R
SULPHUR SPRNGS CLEAR     84  67  58 S10G16    30.00R
CLARKSVILLE    PTCLDY    82  70  68 S5        29.99R
MOUNT PLEASANT CLEAR     80  69  69 S8        30.01R
GILMER         CLEAR     81  72  74 S10       30.02R
MINEOLA        CLOUDY    82  72  69 S7        30.00R
TYLER          CLEAR     79  70  74 S9        30.00R
LONGVIEW       CLEAR     78  69  73 S8        30.00R
MARSHALL       CLEAR     78  71  78 S3        30.04R
ATHENS         CLEAR     77  72  83 S8        29.99R
PALESTINE      CLEAR     80  73  80 SE7       30.01R
JACKSONVILLE   CLEAR     77  71  84 S10       30.04R
HENDERSON      CLEAR     77  71  81 S6        30.02S
NACOGDOCHES    CLEAR     75  72  88 SE3       30.03R
LUFKIN         CLEAR     76  71  85 SE3       30.02R
$$

SUPPLEMENTAL OBSERVATIONS (CENTRAL)

CITY           SKY/WX    TMP DP  RH WIND       PRES   REMARKS
LAKE TEXOMA      N/A     84  68  58 SE10        N/A
CADDO GRASSLND   N/A     82  70  65 S7          N/A
PAT MAYSE LAKE   N/A     84  70  61 SE13        N/A
GREENVILLE       N/A     82  70  65 S8G17       N/A
CEDAR HILL       N/A     84  70  61 SE9G17      N/A
PALESTINE        N/A     79  72  78 S6          N/A
LAKE LIMESTONE   N/A     81  75  83 SE5         N/A
MCGREGOR         N/A     82  70  65 S14         N/A
TEMPLE           N/A     84  70  61 S13         N/A
$$

SUPPLEMENTAL OBSERVATIONS (WEST)

CITY           SKY/WX    TMP DP  RH WIND       PRES   REMARKS
MILLERS CREEK    N/A     84  52  32 S7G15       N/A
POSSUM KINGDOM   N/A    N/A N/A N/A S5G16       N/A
LBJ GRASSLAND    N/A     88  66  48 SE13        N/A  HX  90
GRANBURY         N/A     88  66  48 SE15G25     N/A  HX  90
COMANCHE         N/A     82  59  44 SE9         N/A
HAMBY            N/A     84  57  39 S10         N/A
IVIE RESERVOIR   N/A     81  63  54 SE6         N/A
COLORADO BEND    N/A     86  66  51 S14G22      N/A
$$

SUPPLEMENTAL OBSERVATIONS (EAST)

CITY           SKY/WX    TMP DP  RH WIND       PRES   REMARKS
CLARKSVILLE      N/A     81  70  69 S9          N/A
TEXARKANA        N/A     79  66  65 S2G12       N/A
LINDEN           N/A     79  68  69 S1          N/A
CADDO LAKE       N/A     73  66  78 CALM        N/A
GILMER           N/A     81  72  74 S7          N/A
HENDERSON        N/A     77  72  83 S9          N/A
LUFKIN           N/A     75  73  94 MISG        N/A
N SABINE NF      N/A     73  70  88 MISG        N/A
S SABINE NF      N/A     73  72  94 CALM        N/A
$$

SUPPLEMENTAL OBSERVATIONS ARE A COLLECTION OF AUTOMATED INSTRUMENTS
THAT ARE MAINTAINED BY A VARIETY OF FEDERAL AND STATE AGENCIES.
CERTAIN ELEMENTS...SUCH AS HUMIDITY VALUES AND SUSTAINED WIND
SPEEDS...MAY BE APPROXIMATED.



USA.gov is the U.S. government's official web portal to all federal, state and local government web resources and services.